Date,TemperatureHighF,TemperatureAvgF,TemperatureLowF,DewpointHighF,DewpointAvgF,DewpointLowF,HumidityHigh,HumidityAvg,HumidityLow,PressureMaxIn,PressureMinIn,WindSpeedMaxMPH,WindSpeedAvgMPH,GustSpeedMaxMPH,PrecipitationSumIn
2013-1-1,31.5,27.5,18.4,30.6,24.9,15.4,97,90,79,30.24,30.09,9,2,9,0.00
2013-1-2,27.1,15.9,8.5,15.4,9.7,6.0,90,77,47,30.36,30.23,7,2,8,0.00
2013-1-3,30.9,23.0,14.3,25.3,16.4,6.2,83,76,63,30.40,30.29,16,7,16,0.00
2013-1-4,31.2,26.5,21.8,24.9,20.4,18.2,89,78,65,30.43,30.38,27,9,27,0.00
2013-1-5,38.9,30.6,22.5,29.6,25.1,19.9,92,80,60,30.40,30.19,19,5,19,0.00
2013-1-6,36.4,31.1,24.1,32.2,26.4,20.3,87,82,76,30.43,30.08,26,8,26,0.00
2013-1-7,39.8,27.8,18.1,27.7,22.7,16.2,94,82,59,30.52,30.29,14,3,14,0.00
2013-1-8,46.2,35.3,23.2,33.1,27.4,20.4,91,74,55,30.35,30.25,14,3,14,0.00
2013-1-9,48.9,43.2,37.1,41.2,37.2,30.5,96,80,63,30.54,30.24,19,6,19,0.12
2013-1-10,43.5,37.2,32.1,42.2,34.4,29.8,97,90,78,30.55,30.07,21,6,21,0.10
2013-1-11,58.6,53.6,43.4,53.8,49.8,42.1,98,87,74,30.08,29.88,28,8,28,0.72
2013-1-12,65.0,57.4,52.9,63.7,54.4,48.3,99,90,78,30.01,29.69,25,6,25,1.13
2013-1-13,65.5,38.3,23.1,63.3,36.8,19.5,97,94,84,30.25,29.62,30,8,30,1.52
2013-1-14,23.5,21.3,17.4,19.7,17.2,13.8,89,84,78,30.53,30.25,19,5,19,0.00
2013-1-15,30.1,25.6,19.8,25.5,21.1,16.9,89,83,72,30.47,30.16,16,4,16,0.00
2013-1-16,33.7,30.1,27.7,25.9,23.8,20.0,91,78,58,30.17,30.04,17,6,17,0.00
2013-1-17,39.9,32.3,25.1,33.2,25.6,18.1,86,76,63,30.49,30.14,23,5,23,0.00
2013-1-18,40.9,31.1,20.5,26.8,21.0,17.1,88,68,46,30.58,30.23,26,6,26,0.00
2013-1-19,54.0,46.0,39.1,38.5,31.2,24.2,75,56,48,30.24,29.92,34,16,34,0.00
2013-1-20,45.9,29.8,22.6,38.4,18.2,11.0,77,62,44,30.31,29.97,33,9,33,0.00
2013-1-21,22.7,17.3,10.4,16.6,7.3,-1.6,80,65,48,30.37,30.21,30,12,30,0.00
2013-1-22,16.6,10.8,4.8,1.2,-0.9,-2.8,73,59,44,30.50,30.36,22,8,22,0.00
2013-1-23,23.3,16.9,10.0,14.6,5.8,0.9,76,61,55,30.46,30.19,19,3,19,0.00
2013-1-24,22.7,19.4,13.6,14.4,6.8,0.2,81,59,38,30.68,30.24,28,6,28,0.00
2013-1-25,27.3,22.7,18.2,20.1,14.3,4.1,89,71,48,30.46,30.13,21,6,21,0.00
2013-1-26,32.5,24.6,17.2,19.8,17.5,13.9,87,75,57,30.49,30.19,11,3,11,0.00
2013-1-27,40.4,28.6,19.7,39.1,23.8,15.6,96,83,67,30.48,30.13,19,7,19,0.36
2013-1-28,55.6,49.7,40.5,55.2,48.3,39.1,99,95,90,30.17,30.03,22,8,22,0.28
2013-1-29,65.7,59.0,54.3,60.0,55.8,52.3,99,89,81,30.03,29.43,38,11,39,0.01
2013-1-30,67.4,46.8,27.3,61.0,44.0,21.7,99,90,79,29.68,29.28,43,14,45,0.89
2013-1-31,29.1,23.3,11.9,22.9,16.6,3.3,92,75,63,30.20,29.68,33,16,41,0.00